QPF
0.00 0.01 0.02 0.04 0.14 0.14 0.10 0.05 0.03 0.01 0.01 0.01 0.00 0.01 0.02 0.03 0.07 0.11 0.12 0.14 0.11 0.13 0.08 0.05 0.08 0.07 0.08 0.06 0.05 0.08 0.07 0.07 0.08 0.11 0.12 0.08 0.05 0.05 0.07 0.06 0.05 0.04 0.06 0.10 0.14 0.13 0.24 0.24 0.17
0.01 0.01 0.02 0.06 0.15 0.12 0.09 0.04 0.03 0.01 0.01 0.00 0.00 0.00 0.00 0.01 0.04 0.07 0.11 0.11 0.09 0.10 0.08 0.06 0.06 0.07 0.07 0.06 0.06 0.04 0.05 0.05 0.06 0.05 0.05 0.05 0.05 0.06 0.07 0.06 0.06 0.06 0.07 0.09 0.11 0.14 0.17 0.17 0.14
0.01 0.02 0.03 0.08 0.07 0.07 0.08 0.04 0.02 0.01 0.00 0.00 0.00 0.00 0.01 0.02 0.03 0.06 0.08 0.05 0.04 0.06 0.06 0.06 0.06 0.08 0.09 0.08 0.07 0.08 0.09 0.09 0.08 0.06 0.05 0.06 0.07 0.07 0.07 0.06 0.05 0.06 0.06 0.08 0.08 0.11 0.15 0.15 0.13
0.02 0.03 0.05 0.07 0.06 0.04 0.03 0.02 0.01 0.00 0.00 0.00 0.01 0.01 0.02 0.02 0.03 0.04 0.04 0.02 0.02 0.04 0.04 0.05 0.07 0.09 0.08 0.08 0.11 0.10 0.09 0.09 0.09 0.08 0.07 0.07 0.08 0.07 0.06 0.06 0.06 0.08 0.08 0.08 0.07 0.07 0.10 0.11 0.12
0.04 0.07 0.09 0.09 0.05 0.02 0.00 0.00 0.00 0.00 0.00 0.00 0.01 0.02 0.02 0.04 0.03 0.04 0.04 0.03 0.02 0.03 0.04 0.05 0.07 0.08 0.08 0.11 0.12 0.07 0.06 0.07 0.08 0.07 0.09 0.10 0.08 0.08 0.09 0.08 0.08 0.09 0.10 0.10 0.09 0.10 0.09 0.09 0.09
0.11 0.11 0.09 0.06 0.03 0.01 0.00 0.00 0.00 0.00 0.00 0.00 0.01 0.02 0.04 0.06 0.06 0.06 0.04 0.04 0.03 0.04 0.05 0.07 0.09 0.08 0.09 0.13 0.12 0.09 0.08 0.08 0.07 0.06 0.09 0.12 0.11 0.10 0.10 0.10 0.10 0.11 0.12 0.14 0.14 0.13 0.11 0.08 0.10
0.06 0.09 0.06 0.02 0.01 0.01 0.00 0.00 0.00 0.01 0.01 0.01 0.02 0.03 0.05 0.07 0.07 0.05 0.03 0.03 0.03 0.04 0.06 0.10 0.10 0.07 0.07 0.11 0.14 0.13 0.11 0.08 0.06 0.06 0.08 0.14 0.19 0.15 0.10 0.11 0.12 0.12 0.13 0.18 0.20 0.16 0.11 0.09 0.11
0.01 0.05 0.07 0.02 0.02 0.02 0.00 0.00 0.00 0.01 0.02 0.01 0.02 0.02 0.03 0.05 0.06 0.05 0.05 0.03 0.03 0.03 0.06 0.11 0.12 0.09 0.06 0.06 0.09 0.08 0.07 0.08 0.08 0.07 0.12 0.23 0.19 0.18 0.16 0.13 0.13 0.13 0.15 0.23 0.24 0.16 0.12 0.13 0.19
0.02 0.08 0.09 0.03 0.02 0.02 0.00 0.00 0.00 0.00 0.01 0.01 0.02 0.01 0.02 0.03 0.06 0.06 0.05 0.04 0.03 0.05 0.07 0.10 0.12 0.09 0.07 0.06 0.06 0.08 0.08 0.09 0.10 0.11 0.16 0.27 0.19 0.16 0.20 0.18 0.13 0.14 0.18 0.25 0.25 0.17 0.14 0.16 0.19
0.04 0.06 0.05 0.02 0.01 0.01 0.00 0.00 0.00 0.01 0.01 0.02 0.03 0.01 0.01 0.02 0.05 0.04 0.03 0.04 0.04 0.03 0.05 0.08 0.10 0.09 0.06 0.08 0.09 0.10 0.08 0.09 0.09 0.11 0.16 0.31 0.31 0.23 0.21 0.21 0.19 0.19 0.22 0.24 0.25 0.21 0.15 0.13 0.13
0.02 0.04 0.02 0.02 0.01 0.00 0.00 0.01 0.00 0.01 0.01 0.03 0.03 0.02 0.02 0.02 0.04 0.03 0.02 0.04 0.05 0.04 0.04 0.07 0.08 0.08 0.08 0.10 0.10 0.10 0.10 0.11 0.10 0.11 0.12 0.17 0.25 0.25 0.21 0.19 0.24 0.26 0.26 0.22 0.20 0.18 0.14 0.12 0.12
0.01 0.01 0.01 0.01 0.01 0.01 0.01 0.01 0.01 0.01 0.01 0.02 0.03 0.03 0.02 0.03 0.03 0.03 0.03 0.05 0.06 0.05 0.04 0.04 0.06 0.08 0.09 0.10 0.12 0.13 0.11 0.09 0.08 0.10 0.13 0.14 0.14 0.15 0.14 0.16 0.21 0.27 0.25 0.20 0.16 0.15 0.15 0.14 0.14
0.00 0.00 0.00 0.00 0.00 0.00 0.01 0.02 0.01 0.02 0.02 0.01 0.02 0.03 0.03 0.03 0.03 0.02 0.03 0.04 0.03 0.02 0.03 0.03 0.04 0.07 0.09 0.10 0.13 0.12 0.09 0.09 0.07 0.07 0.07 0.09 0.09 0.09 0.09 0.10 0.12 0.17 0.19 0.16 0.13 0.16 0.17 0.16 0.16
0.00 0.00 0.00 0.00 0.00 0.00 0.02 0.02 0.01 0.03 0.02 0.02 0.03 0.05 0.03 0.02 0.02 0.02 0.02 0.02 0.02 0.02 0.03 0.03 0.04 0.05 0.07 0.09 0.11 0.11 0.09 0.11 0.07 0.06 0.04 0.05 0.06 0.07 0.06 0.07 0.11 0.13 0.15 0.15 0.15 0.18 0.20 0.19 0.20
0.00 0.00 0.01 0.00 0.00 0.00 0.04 0.04 0.02 0.02 0.01 0.02 0.04 0.05 0.03 0.02 0.02 0.02 0.01 0.02 0.02 0.02 0.03 0.03 0.03 0.03 0.03 0.05 0.07 0.08 0.10 0.14 0.07 0.05 0.04 0.04 0.05 0.06 0.07 0.07 0.08 0.10 0.12 0.17 0.19 0.23 0.24 0.21 0.21
0.00 0.01 0.03 0.02 0.00 0.00 0.02 0.06 0.03 0.01 0.01 0.02 0.01 0.02 0.03 0.03 0.03 0.01 0.01 0.02 0.02 0.02 0.03 0.04 0.03 0.02 0.02 0.03 0.04 0.04 0.04 0.05 0.04 0.03 0.03 0.03 0.04 0.05 0.08 0.06 0.05 0.07 0.08 0.13 0.18 0.23 0.25 0.23 0.18
0.01 0.02 0.04 0.03 0.01 0.00 0.01 0.03 0.01 0.00 0.01 0.01 0.01 0.01 0.02 0.02 0.02 0.01 0.01 0.01 0.02 0.02 0.02 0.03 0.03 0.02 0.02 0.03 0.04 0.04 0.03 0.03 0.03 0.02 0.03 0.03 0.03 0.05 0.07 0.06 0.09 0.07 0.06 0.09 0.12 0.16 0.21 0.18 0.14
0.01 0.01 0.01 0.01 0.00 0.00 0.01 0.02 0.01 0.00 0.00 0.01 0.01 0.02 0.02 0.02 0.02 0.01 0.01 0.01 0.02 0.02 0.02 0.02 0.02 0.03 0.03 0.04 0.04 0.04 0.03 0.02 0.03 0.04 0.03 0.02 0.03 0.04 0.05 0.06 0.09 0.07 0.08 0.09 0.10 0.13 0.12 0.11 0.11
0.01 0.01 0.01 0.01 0.00 0.00 0.01 0.02 0.01 0.01 0.00 0.00 0.01 0.02 0.02 0.02 0.01 0.01 0.02 0.01 0.01 0.02 0.02 0.02 0.02 0.03 0.04 0.04 0.04 0.04 0.04 0.02 0.03 0.03 0.02 0.02 0.03 0.03 0.05 0.05 0.06 0.06 0.08 0.09 0.07 0.07 0.08 0.09 0.08
0.01 0.01 0.01 0.01 0.00 0.00 0.01 0.02 0.02 0.02 0.01 0.00 0.00 0.01 0.01 0.01 0.00 0.01 0.02 0.02 0.01 0.02 0.03 0.03 0.02 0.03 0.04 0.04 0.05 0.04 0.04 0.04 0.03 0.02 0.02 0.02 0.04 0.04 0.04 0.04 0.05 0.06 0.07 0.08 0.07 0.07 0.07 0.07 0.07
0.01 0.01 0.00 0.00 0.00 0.00 0.01 0.05 0.02 0.01 0.01 0.01 0.00 0.00 0.00 0.00 0.00 0.01 0.01 0.01 0.02 0.02 0.03 0.03 0.03 0.03 0.04 0.04 0.04 0.05 0.06 0.05 0.04 0.04 0.04 0.04 0.05 0.04 0.03 0.04 0.05 0.06 0.07 0.09 0.07 0.05 0.06 0.07 0.08
0.01 0.00 0.00 0.00 0.01 0.02 0.02 0.08 0.05 0.02 0.02 0.02 0.02 0.00 0.00 0.00 0.00 0.00 0.00 0.01 0.01 0.01 0.01 0.03 0.02 0.03 0.03 0.03 0.04 0.04 0.05 0.05 0.05 0.05 0.04 0.05 0.05 0.04 0.03 0.03 0.03 0.04 0.03 0.05 0.05 0.04 0.06 0.08 0.07
0.00 0.00 0.00 0.00 0.01 0.01 0.02 0.05 0.09 0.06 0.07 0.05 0.04 0.01 0.00 0.00 0.01 0.01 0.00 0.01 0.01 0.01 0.02 0.02 0.02 0.02 0.02 0.02 0.02 0.03 0.04 0.05 0.04 0.04 0.04 0.04 0.04 0.03 0.03 0.02 0.03 0.03 0.03 0.03 0.04 0.04 0.05 0.07 0.07
0.00 0.00 0.00 0.01 0.02 0.02 0.02 0.04 0.11 0.07 0.04 0.04 0.04 0.02 0.01 0.01 0.02 0.03 0.03 0.02 0.01 0.01 0.01 0.02 0.02 0.03 0.03 0.03 0.02 0.03 0.03 0.04 0.03 0.03 0.04 0.03 0.02 0.02 0.02 0.01 0.02 0.02 0.02 0.03 0.04 0.04 0.05 0.06 0.06
0.00 0.01 0.03 0.05 0.06 0.04 0.02 0.02 0.03 0.03 0.04 0.01 0.01 0.02 0.02 0.02 0.03 0.03 0.02 0.02 0.02 0.01 0.02 0.02 0.04 0.06 0.06 0.04 0.04 0.04 0.04 0.04 0.03 0.03 0.03 0.03 0.01 0.02 0.02 0.02 0.02 0.04 0.04 0.04 0.04 0.05 0.04 0.05 0.05
0.00 0.00 0.03 0.06 0.06 0.04 0.02 0.02 0.03 0.03 0.02 0.01 0.00 0.01 0.01 0.02 0.02 0.01 0.01 0.02 0.02 0.02 0.01 0.01 0.02 0.04 0.05 0.05 0.04 0.05 0.05 0.05 0.04 0.04 0.03 0.02 0.02 0.02 0.02 0.02 0.03 0.03 0.03 0.03 0.04 0.04 0.03 0.04 0.04
0.00 0.00 0.00 0.01 0.02 0.04 0.02 0.02 0.02 0.03 0.04 0.03 0.02 0.01 0.00 0.01 0.01 0.01 0.01 0.01 0.01 0.01 0.01 0.01 0.01 0.03 0.04 0.05 0.06 0.04 0.05 0.05 0.05 0.04 0.04 0.03 0.03 0.03 0.03 0.02 0.02 0.02 0.03 0.03 0.04 0.04 0.04 0.04 0.03
0.00 0.00 0.00 0.01 0.02 0.03 0.03 0.03 0.06 0.04 0.05 0.03 0.02 0.02 0.02 0.02 0.02 0.01 0.01 0.01 0.00 0.01 0.01 0.01 0.02 0.01 0.02 0.04 0.05 0.05 0.05 0.05 0.05 0.05 0.05 0.04 0.04 0.04 0.04 0.04 0.04 0.04 0.04 0.04 0.04 0.04 0.05 0.05 0.04
0.00 0.00 0.00 0.00 0.00 0.02 0.03 0.04 0.05 0.04 0.02 0.02 0.02 0.04 0.04 0.03 0.01 0.01 0.01 0.01 0.01 0.00 0.00 0.01 0.01 0.01 0.01 0.03 0.05 0.07 0.07 0.07 0.07 0.07 0.05 0.04 0.04 0.05 0.06 0.06 0.05 0.05 0.05 0.05 0.05 0.05 0.07 0.07 0.05
0.00 0.00 0.00 0.00 0.00 0.00 0.03 0.03 0.05 0.05 0.03 0.04 0.04 0.03 0.04 0.02 0.01 0.01 0.01 0.01 0.01 0.00 0.00 0.00 0.01 0.01 0.01 0.01 0.03 0.06 0.08 0.06 0.05 0.05 0.05 0.05 0.04 0.04 0.05 0.05 0.05 0.03 0.04 0.04 0.04 0.05 0.06 0.05 0.05
MSLP
1003.64 1004.29 1004.99 1005.61 1006.05 1006.24 1006.17 1005.89 1005.48 1005.05 1004.68 1004.44 1004.32 1004.30 1004.31 1004.27 1004.13 1003.83 1003.37 1002.80 1002.16 1001.52 1000.94 1000.49 1000.19 1000.06 1000.09 1000.27 1000.57 1000.98 1001.48 1002.07 1002.72 1003.40 1004.11 1004.80 1005.47 1006.08 1006.65 1007.17 1007.66 1008.13 1008.60 1009.08 1009.56 1010.03 1010.48 1010.88 1011.24
1003.72 1004.43 1005.14 1005.71 1006.05 1006.11 1005.90 1005.46 1004.91 1004.34 1003.86 1003.53 1003.36 1003.33 1003.38 1003.43 1003.41 1003.24 1002.90 1002.39 1001.74 1001.00 1000.24 999.53 998.94 998.54 998.36 998.42 998.74 999.29 1000.03 1000.92 1001.88 1002.86 1003.78 1004.61 1005.34 1005.95 1006.48 1006.95 1007.40 1007.87 1008.37 1008.90 1009.45 1009.99 1010.49 1010.93 1011.30
1003.90 1004.67 1005.38 1005.90 1006.15 1006.10 1005.76 1005.20 1004.52 1003.83 1003.24 1002.81 1002.57 1002.51 1002.57 1002.67 1002.73 1002.67 1002.41 1001.93 1001.24 1000.36 999.38 998.38 997.47 996.77 996.36 996.31 996.65 997.36 998.37 999.59 1000.91 1002.21 1003.39 1004.39 1005.20 1005.82 1006.30 1006.72 1007.13 1007.58 1008.09 1008.67 1009.28 1009.88 1010.44 1010.92 1011.32
1004.13 1004.94 1005.63 1006.11 1006.30 1006.17 1005.76 1005.13 1004.37 1003.60 1002.92 1002.40 1002.08 1001.96 1002.00 1002.11 1002.22 1002.21 1002.00 1001.52 1000.76 999.73 998.51 997.20 995.96 994.95 994.31 994.14 994.49 995.34 996.61 998.17 999.85 1001.49 1002.95 1004.15 1005.06 1005.71 1006.18 1006.55 1006.91 1007.34 1007.86 1008.46 1009.12 1009.77 1010.37 1010.88 1011.30
1004.31 1005.11 1005.78 1006.22 1006.37 1006.23 1005.80 1005.17 1004.40 1003.61 1002.89 1002.31 1001.93 1001.74 1001.72 1001.82 1001.93 1001.93 1001.74 1001.24 1000.41 999.23 997.78 996.20 994.65 993.35 992.48 992.17 992.51 993.47 994.96 996.81 998.82 1000.77 1002.50 1003.90 1004.94 1005.65 1006.13 1006.49 1006.83 1007.24 1007.75 1008.36 1009.03 1009.70 1010.32 1010.85 1011.29
1004.33 1005.08 1005.70 1006.10 1006.25 1006.13 1005.76 1005.20 1004.51 1003.78 1003.08 1002.48 1002.05 1001.80 1001.73 1001.78 1001.86 1001.87 1001.67 1001.16 1000.27 998.99 997.38 995.57 993.78 992.23 991.15 990.70 990.99 992.00 993.63 995.69 997.94 1000.15 1002.10 1003.69 1004.87 1005.67 1006.19 1006.56 1006.90 1007.29 1007.80 1008.40 1009.06 1009.73 1010.34 1010.87 1011.30
1004.11 1004.77 1005.30 1005.65 1005.81 1005.75 1005.50 1005.08 1004.55 1003.94 1003.33 1002.78 1002.34 1002.06 1001.94 1001.94 1002.00 1002.00 1001.81 1001.32 1000.42 999.11 997.42 995.50 993.55 991.83 990.58 990.00 990.20 991.19 992.85 995.00 997.38 999.74 1001.85 1003.57 1004.87 1005.76 1006.35 1006.76 1007.12 1007.52 1008.01 1008.60 1009.23 1009.86 1010.45 1010.95 1011.37
1003.66 1004.16 1004.57 1004.86 1005.02 1005.05 1004.94 1004.72 1004.38 1003.97 1003.51 1003.06 1002.67 1002.40 1002.25 1002.23 1002.27 1002.29 1002.14 1001.70 1000.88 999.62 997.96 996.04 994.04 992.25 990.90 990.21 990.30 991.19 992.78 994.89 997.27 999.64 1001.80 1003.59 1004.96 1005.93 1006.59 1007.06 1007.46 1007.88 1008.37 1008.93 1009.53 1010.12 1010.66 1011.12 1011.50
1003.05 1003.35 1003.60 1003.80 1003.95 1004.06 1004.11 1004.09 1003.99 1003.80 1003.54 1003.24 1002.95 1002.72 1002.59 1002.58 1002.64 1002.69 1002.62 1002.29 1001.60 1000.49 998.98 997.17 995.26 993.49 992.12 991.35 991.32 992.06 993.49 995.44 997.67 999.93 1002.02 1003.78 1005.16 1006.17 1006.89 1007.42 1007.88 1008.33 1008.83 1009.38 1009.94 1010.48 1010.96 1011.37 1011.71
1002.40 1002.49 1002.56 1002.64 1002.76 1002.91 1003.10 1003.27 1003.40 1003.45 1003.41 1003.29 1003.13 1002.99 1002.92 1002.95 1003.06 1003.18 1003.21 1003.03 1002.53 1001.64 1000.36 998.77 997.05 995.42 994.11 993.32 993.18 993.74 994.94 996.62 998.59 1000.62 1002.53 1004.17 1005.48 1006.49 1007.24 1007.83 1008.34 1008.84 1009.36 1009.89 1010.43 1010.92 1011.36 1011.72 1012.02
1001.87 1001.75 1001.63 1001.58 1001.63 1001.81 1002.08 1002.41 1002.73 1003.00 1003.16 1003.23 1003.23 1003.22 1003.24 1003.33 1003.51 1003.72 1003.87 1003.85 1003.56 1002.93 1001.93 1000.65 999.21 997.80 996.63 995.87 995.66 996.05 996.97 998.34 999.97 1001.68 1003.30 1004.74 1005.93 1006.88 1007.64 1008.26 1008.82 1009.37 1009.91 1010.45 1010.97 1011.43 1011.83 1012.16 1012.43
1001.58 1001.28 1001.00 1000.81 1000.78 1000.93 1001.24 1001.66 1002.12 1002.56 1002.90 1003.15 1003.31 1003.42 1003.55 1003.73 1003.98 1004.27 1004.53 1004.66 1004.57 1004.20 1003.51 1002.56 1001.44 1000.31 999.35 998.69 998.46 998.69 999.37 1000.40 1001.66 1003.00 1004.30 1005.48 1006.49 1007.35 1008.07 1008.71 1009.31 1009.90 1010.47 1011.03 1011.54 1011.99 1012.37 1012.67 1012.93
1001.63 1001.19 1000.77 1000.46 1000.33 1000.42 1000.71 1001.17 1001.70 1002.24 1002.72 1003.10 1003.41 1003.65 1003.89 1004.16 1004.48 1004.83 1005.17 1005.41 1005.48 1005.33 1004.91 1004.28 1003.49 1002.67 1001.95 1001.45 1001.25 1001.38 1001.85 1002.58 1003.48 1004.45 1005.42 1006.32 1007.13 1007.87 1008.54 1009.17 1009.80 1010.42 1011.03 1011.60 1012.12 1012.56 1012.93 1013.24 1013.48
1001.99 1001.48 1000.97 1000.56 1000.34 1000.35 1000.59 1001.01 1001.54 1002.11 1002.66 1003.14 1003.56 1003.91 1004.25 1004.60 1004.98 1005.37 1005.74 1006.04 1006.21 1006.20 1006.00 1005.63 1005.13 1004.61 1004.15 1003.83 1003.71 1003.82 1004.14 1004.63 1005.23 1005.88 1006.54 1007.18 1007.80 1008.41 1009.02 1009.64 1010.28 1010.93 1011.56 1012.14 1012.67 1013.12 1013.49 1013.80 1014.06
1002.59 1002.06 1001.51 1001.05 1000.76 1000.68 1000.83 1001.16 1001.64 1002.18 1002.73 1003.26 1003.75 1004.20 1004.62 1005.04 1005.46 1005.87 1006.25 1006.55 1006.75 1006.81 1006.73 1006.55 1006.29 1006.02 1005.79 1005.67 1005.67 1005.80 1006.05 1006.37 1006.75 1007.16 1007.57 1008.00 1008.45 1008.94 1009.49 1010.09 1010.74 1011.39 1012.04 1012.63 1013.16 1013.61 1014.00 1014.33 1014.61
1003.27 1002.77 1002.24 1001.77 1001.43 1001.28 1001.33 1001.56 1001.93 1002.39 1002.90 1003.42 1003.94 1004.45 1004.96 1005.44 1005.90 1006.33 1006.68 1006.95 1007.12 1007.19 1007.16 1007.08 1006.97 1006.89 1006.87 1006.92 1007.05 1007.24 1007.47 1007.71 1007.95 1008.18 1008.42 1008.69 1009.01 1009.42 1009.92 1010.50 1011.14 1011.80 1012.44 1013.03 1013.56 1014.01 1014.40 1014.75 1015.08
1003.88 1003.45 1002.98 1002.55 1002.22 1002.03 1001.99 1002.09 1002.33 1002.66 1003.08 1003.56 1004.08 1004.64 1005.20 1005.76 1006.27 1006.71 1007.06 1007.29 1007.40 1007.42 1007.39 1007.33 1007.30 1007.34 1007.46 1007.65 1007.90 1008.17 1008.42 1008.63 1008.80 1008.93 1009.06 1009.22 1009.47 1009.82 1010.29 1010.85 1011.48 1012.13 1012.76 1013.33 1013.84 1014.28 1014.67 1015.04 1015.41
1004.32 1003.99 1003.62 1003.28 1003.00 1002.80 1002.69 1002.68 1002.76 1002.95 1003.24 1003.63 1004.12 1004.70 1005.32 1005.95 1006.54 1007.03 1007.38 1007.59 1007.66 1007.63 1007.54 1007.47 1007.46 1007.54 1007.74 1008.02 1008.36 1008.69 1008.98 1009.20 1009.34 1009.42 1009.50 1009.62 1009.82 1010.14 1010.58 1011.13 1011.75 1012.38 1012.97 1013.52 1013.99 1014.41 1014.79 1015.17 1015.57
1004.53 1004.31 1004.08 1003.87 1003.68 1003.52 1003.37 1003.26 1003.19 1003.21 1003.34 1003.62 1004.05 1004.62 1005.29 1006.01 1006.68 1007.25 1007.67 1007.89 1007.95 1007.88 1007.75 1007.63 1007.59 1007.68 1007.90 1008.22 1008.60 1008.98 1009.30 1009.53 1009.67 1009.75 1009.81 1009.90 1010.09 1010.39 1010.82 1011.36 1011.95 1012.55 1013.11 1013.61 1014.03 1014.41 1014.76 1015.14 1015.57
1004.51 1004.43 1004.37 1004.33 1004.28 1004.18 1004.03 1003.82 1003.61 1003.45 1003.40 1003.53 1003.86 1004.41 1005.11 1005.90 1006.69 1007.38 1007.89 1008.19 1008.29 1008.22 1008.06 1007.91 1007.84 1007.89 1008.10 1008.41 1008.80 1009.19 1009.53 1009.77 1009.92 1010.00 1010.05 1010.14 1010.32 1010.61 1011.03 1011.55 1012.11 1012.67 1013.18 1013.62 1013.99 1014.30 1014.62 1014.97 1015.40
1004.33 1004.41 1004.55 1004.72 1004.83 1004.83 1004.69 1004.41 1004.06 1003.71 1003.46 1003.41 1003.61 1004.09 1004.80 1005.66 1006.56 1007.39 1008.04 1008.46 1008.64 1008.62 1008.49 1008.33 1008.23 1008.25 1008.42 1008.71 1009.08 1009.46 1009.79 1010.04 1010.19 1010.26 1010.32 1010.40 1010.57 1010.85 1011.25 1011.73 1012.26 1012.77 1013.22 1013.60 1013.89 1014.14 1014.40 1014.71 1015.11
1004.09 1004.35 1004.71 1005.09 1005.38 1005.49 1005.38 1005.05 1004.56 1004.02 1003.56 1003.30 1003.34 1003.72 1004.40 1005.30 1006.30 1007.26 1008.06 1008.63 1008.94 1009.03 1008.96 1008.83 1008.73 1008.74 1008.88 1009.13 1009.47 1009.83 1010.15 1010.39 1010.53 1010.61 1010.65 1010.73 1010.88 1011.14 1011.50 1011.94 1012.42 1012.87 1013.26 1013.57 1013.79 1013.97 1014.15 1014.39 1014.75
1003.88 1004.32 1004.91 1005.50 1005.97 1006.20 1006.12 1005.74 1005.12 1004.39 1003.71 1003.24 1003.10 1003.34 1003.95 1004.85 1005.91 1006.99 1007.93 1008.66 1009.13 1009.35 1009.38 1009.32 1009.26 1009.27 1009.40 1009.64 1009.95 1010.29 1010.60 1010.83 1010.97 1011.04 1011.08 1011.14 1011.26 1011.48 1011.79 1012.18 1012.59 1012.98 1013.31 1013.55 1013.70 1013.81 1013.91 1014.08 1014.36
1003.73 1004.37 1005.17 1005.95 1006.58 1006.91 1006.86 1006.43 1005.69 1004.79 1003.92 1003.24 1002.90 1002.99 1003.50 1004.35 1005.44 1006.59 1007.65 1008.52 1009.14 1009.50 1009.65 1009.69 1009.69 1009.75 1009.89 1010.14 1010.45 1010.79 1011.09 1011.33 1011.47 1011.54 1011.57 1011.60 1011.69 1011.85 1012.11 1012.43 1012.78 1013.10 1013.37 1013.55 1013.64 1013.69 1013.72 1013.81 1014.01
1003.69 1004.50 1005.46 1006.40 1007.13 1007.53 1007.49 1007.02 1006.20 1005.16 1004.12 1003.27 1002.76 1002.69 1003.08 1003.86 1004.93 1006.10 1007.24 1008.22 1008.96 1009.45 1009.73 1009.88 1009.97 1010.09 1010.28 1010.55 1010.89 1011.24 1011.56 1011.81 1011.97 1012.05 1012.07 1012.08 1012.13 1012.24 1012.42 1012.67 1012.95 1013.21 1013.42 1013.55 1013.61 1013.61 1013.59 1013.62 1013.73
1003.71 1004.65 1005.72 1006.73 1007.53 1007.95 1007.92 1007.41 1006.53 1005.41 1004.26 1003.28 1002.64 1002.44 1002.72 1003.42 1004.43 1005.59 1006.76 1007.79 1008.62 1009.22 1009.61 1009.86 1010.05 1010.25 1010.50 1010.82 1011.19 1011.58 1011.94 1012.22 1012.41 1012.50 1012.52 1012.51 1012.52 1012.58 1012.70 1012.87 1013.08 1013.29 1013.45 1013.56 1013.59 1013.57 1013.53 1013.52 1013.57
1003.78 1004.77 1005.86 1006.88 1007.66 1008.07 1008.01 1007.49 1006.59 1005.44 1004.25 1003.23 1002.52 1002.25 1002.44 1003.05 1004.00 1005.12 1006.27 1007.33 1008.20 1008.88 1009.35 1009.69 1009.97 1010.24 1010.56 1010.93 1011.36 1011.79 1012.19 1012.51 1012.73 1012.85 1012.88 1012.87 1012.85 1012.86 1012.91 1013.02 1013.17 1013.33 1013.46 1013.55 1013.59 1013.58 1013.54 1013.52 1013.54
1003.84 1004.80 1005.82 1006.76 1007.46 1007.80 1007.71 1007.19 1006.31 1005.21 1004.07 1003.07 1002.38 1002.09 1002.24 1002.79 1003.67 1004.73 1005.84 1006.89 1007.78 1008.49 1009.03 1009.44 1009.78 1010.12 1010.50 1010.92 1011.39 1011.87 1012.31 1012.67 1012.93 1013.08 1013.14 1013.13 1013.09 1013.07 1013.08 1013.13 1013.22 1013.34 1013.46 1013.55 1013.61 1013.63 1013.63 1013.62 1013.64
1003.86 1004.70 1005.57 1006.34 1006.90 1007.14 1007.00 1006.50 1005.69 1004.69 1003.68 1002.80 1002.19 1001.95 1002.11 1002.64 1003.46 1004.46 1005.52 1006.53 1007.41 1008.14 1008.72 1009.18 1009.57 1009.97 1010.38 1010.85 1011.34 1011.85 1012.32 1012.72 1013.01 1013.20 1013.29 1013.30 1013.27 1013.23 1013.21 1013.23 1013.28 1013.37 1013.48 1013.58 1013.67 1013.73 1013.77 1013.81 1013.86
1003.84 1004.48 1005.12 1005.68 1006.05 1006.16 1005.98 1005.51 1004.80 1003.96 1003.12 1002.42 1001.96 1001.81 1002.02 1002.55 1003.33 1004.28 1005.28 1006.25 1007.12 1007.85 1008.45 1008.95 1009.39 1009.82 1010.27 1010.75 1011.26 1011.78 1012.26 1012.69 1013.02 1013.25 1013.37 1013.42 1013.41 1013.38 1013.35 1013.35 1013.38 1013.45 1013.55 1013.66 1013.77 1013.88 1013.98 1014.08 1014.18
Thickness
5838 5839 5838 5828 5808 5799 5804 5821 5832 5832 5833 5842 5842 5834 5821 5812 5801 5790 5818 5830 5828 5823 5821 5818 5813 5811 5810 5809 5808 5807 5807 5806 5807 5806 5806 5806 5805 5804 5803 5802 5801 5800 5799 5798 5797 5795 5794 5792 5791
5847 5846 5837 5821 5804 5797 5805 5828 5829 5834 5842 5847 5843 5835 5823 5817 5821 5818 5823 5829 5829 5824 5821 5816 5812 5811 5810 5809 5808 5807 5807 5806 5806 5806 5805 5805 5804 5804 5802 5801 5800 5800 5798 5797 5796 5795 5794 5792 5791
5849 5850 5830 5818 5813 5809 5813 5832 5835 5844 5851 5845 5836 5833 5822 5816 5822 5822 5827 5831 5829 5824 5820 5815 5813 5812 5811 5809 5808 5808 5807 5806 5805 5805 5805 5805 5804 5804 5802 5801 5800 5799 5798 5797 5795 5794 5793 5793 5791
5849 5842 5832 5820 5818 5831 5836 5842 5846 5843 5845 5846 5837 5823 5823 5831 5828 5829 5833 5833 5828 5823 5820 5815 5814 5813 5812 5811 5809 5808 5807 5806 5805 5805 5805 5805 5804 5804 5802 5801 5800 5798 5797 5796 5795 5794 5793 5792 5791
5851 5830 5815 5817 5826 5842 5851 5853 5851 5841 5837 5839 5833 5816 5814 5831 5836 5836 5835 5833 5827 5823 5820 5816 5814 5813 5813 5813 5812 5809 5808 5807 5806 5805 5805 5804 5804 5803 5802 5800 5799 5797 5796 5795 5794 5794 5793 5792 5792
5833 5824 5813 5814 5829 5845 5854 5857 5852 5842 5838 5838 5831 5818 5815 5831 5833 5834 5835 5832 5830 5825 5821 5818 5815 5814 5813 5813 5812 5809 5808 5807 5806 5805 5804 5804 5804 5803 5801 5800 5798 5797 5796 5795 5794 5793 5793 5793 5792
5833 5823 5818 5826 5830 5837 5850 5859 5848 5841 5836 5838 5838 5819 5817 5828 5833 5836 5835 5834 5831 5828 5823 5820 5817 5815 5813 5812 5811 5809 5807 5807 5806 5805 5805 5804 5804 5803 5801 5799 5798 5797 5795 5795 5794 5794 5794 5794 5794
5859 5838 5825 5831 5832 5835 5854 5857 5854 5846 5838 5849 5846 5821 5814 5826 5836 5836 5834 5832 5830 5828 5825 5822 5819 5817 5814 5812 5810 5808 5807 5806 5806 5805 5805 5804 5804 5803 5801 5799 5797 5796 5795 5795 5794 5794 5795 5795 5794
5865 5832 5820 5833 5838 5842 5857 5852 5853 5858 5847 5845 5845 5837 5833 5837 5838 5832 5828 5826 5824 5824 5824 5823 5821 5819 5818 5815 5811 5808 5807 5806 5805 5805 5805 5805 5805 5804 5801 5799 5797 5796 5795 5795 5794 5794 5795 5795 5794
5852 5823 5830 5851 5859 5855 5857 5854 5852 5848 5838 5833 5834 5838 5841 5839 5834 5828 5823 5819 5818 5818 5821 5822 5820 5819 5819 5816 5812 5810 5809 5806 5806 5806 5805 5805 5805 5803 5801 5797 5796 5795 5795 5794 5794 5794 5794 5794 5794
5856 5841 5854 5862 5870 5868 5860 5856 5858 5843 5829 5831 5830 5832 5836 5835 5831 5827 5823 5820 5818 5819 5819 5820 5819 5818 5817 5815 5813 5811 5810 5807 5807 5806 5805 5804 5802 5801 5798 5796 5794 5794 5794 5793 5793 5793 5793 5794 5794
5861 5861 5867 5869 5873 5869 5861 5860 5854 5847 5841 5848 5846 5842 5837 5832 5829 5827 5823 5821 5819 5818 5817 5817 5818 5815 5814 5814 5813 5811 5809 5807 5806 5804 5803 5802 5800 5798 5796 5794 5793 5793 5793 5791 5791 5790 5791 5791 5791
5866 5865 5873 5878 5877 5873 5867 5858 5852 5848 5856 5857 5851 5844 5838 5835 5832 5830 5827 5823 5820 5817 5816 5816 5816 5813 5812 5812 5811 5810 5808 5806 5804 5802 5801 5799 5797 5795 5793 5792 5791 5791 5791 5790 5789 5789 5788 5788 5788
5872 5874 5873 5875 5875 5871 5859 5854 5851 5849 5859 5853 5846 5840 5838 5836 5833 5830 5826 5822 5819 5817 5816 5816 5815 5813 5811 5810 5809 5808 5807 5804 5803 5801 5799 5798 5796 5794 5792 5790 5789 5789 5788 5788 5788 5787 5786 5785 5785
5877 5865 5862 5869 5871 5868 5859 5838 5845 5856 5858 5848 5844 5841 5838 5837 5834 5830 5827 5824 5821 5818 5817 5816 5815 5813 5810 5809 5809 5808 5807 5804 5802 5800 5798 5797 5795 5793 5791 5789 5787 5786 5786 5786 5786 5786 5785 5783 5782
5864 5849 5837 5858 5869 5868 5851 5819 5845 5860 5856 5846 5843 5841 5836 5835 5835 5833 5830 5826 5824 5821 5817 5817 5817 5813 5810 5809 5808 5808 5806 5804 5801 5799 5797 5795 5794 5792 5790 5788 5786 5785 5784 5783 5782 5781 5779 5778 5777
5841 5829 5835 5851 5869 5865 5851 5829 5849 5862 5856 5846 5844 5841 5837 5834 5834 5834 5832 5828 5825 5821 5818 5815 5814 5812 5810 5809 5808 5807 5805 5803 5800 5798 5795 5794 5793 5791 5789 5787 5785 5784 5782 5780 5779 5776 5775 5773 5772
5827 5835 5842 5845 5862 5862 5848 5839 5851 5861 5857 5850 5847 5844 5839 5834 5833 5834 5833 5830 5826 5822 5819 5815 5813 5811 5809 5808 5806 5804 5803 5801 5799 5796 5793 5792 5790 5789 5787 5785 5784 5783 5780 5777 5775 5772 5772 5771 5770
5852 5849 5843 5850 5868 5858 5846 5839 5844 5855 5854 5851 5849 5845 5840 5837 5838 5837 5834 5831 5826 5821 5817 5814 5811 5809 5807 5804 5801 5798 5796 5797 5795 5794 5792 5790 5788 5787 5785 5783 5781 5780 5777 5775 5773 5771 5769 5768 5769
5854 5845 5845 5857 5868 5858 5844 5838 5845 5852 5853 5854 5852 5847 5842 5839 5836 5834 5833 5831 5825 5820 5816 5813 5811 5809 5806 5804 5802 5800 5797 5796 5795 5793 5790 5788 5786 5784 5784 5781 5779 5777 5775 5773 5772 5769 5766 5766 5767
5849 5845 5847 5849 5858 5858 5841 5826 5836 5850 5859 5857 5857 5854 5849 5843 5837 5834 5831 5828 5825 5820 5817 5814 5811 5808 5806 5804 5803 5800 5797 5793 5790 5787 5786 5786 5784 5782 5780 5778 5777 5775 5773 5770 5769 5768 5765 5762 5764
5840 5861 5860 5855 5843 5831 5835 5804 5823 5839 5843 5846 5849 5852 5851 5848 5843 5837 5832 5827 5824 5821 5819 5814 5810 5806 5804 5803 5799 5795 5789 5785 5785 5784 5783 5783 5783 5781 5778 5776 5775 5773 5771 5768 5768 5767 5766 5763 5759
5855 5869 5862 5854 5839 5829 5829 5808 5813 5835 5829 5837 5846 5850 5853 5851 5846 5839 5835 5830 5827 5824 5819 5813 5809 5804 5802 5800 5798 5793 5789 5786 5785 5784 5781 5780 5779 5778 5776 5774 5772 5770 5768 5766 5765 5764 5763 5762 5759
5870 5864 5857 5851 5835 5805 5820 5811 5806 5827 5834 5840 5847 5850 5852 5851 5847 5841 5838 5832 5827 5825 5819 5813 5806 5801 5800 5798 5795 5791 5787 5784 5781 5779 5776 5776 5775 5774 5772 5771 5769 5767 5765 5763 5761 5760 5760 5758 5757
5864 5840 5816 5805 5798 5803 5829 5819 5818 5842 5852 5851 5849 5851 5853 5851 5846 5839 5833 5828 5824 5821 5816 5810 5803 5798 5797 5795 5792 5789 5786 5783 5779 5777 5774 5772 5770 5768 5767 5766 5764 5762 5761 5760 5758 5757 5756 5755 5754
5853 5845 5813 5795 5793 5804 5821 5813 5829 5850 5857 5862 5859 5857 5853 5849 5846 5839 5833 5828 5823 5819 5814 5807 5801 5796 5794 5792 5789 5787 5785 5782 5778 5776 5773 5770 5767 5766 5764 5762 5760 5759 5757 5757 5755 5754 5753 5752 5751
5845 5845 5853 5831 5819 5806 5809 5816 5829 5845 5847 5851 5853 5853 5849 5846 5844 5839 5834 5829 5824 5818 5812 5807 5800 5795 5792 5789 5786 5783 5780 5777 5775 5773 5770 5767 5765 5764 5761 5759 5756 5755 5753 5752 5750 5749 5748 5748 5748
5861 5855 5844 5825 5801 5791 5801 5804 5803 5820 5832 5839 5841 5842 5842 5843 5841 5839 5835 5830 5825 5819 5813 5807 5800 5794 5790 5787 5783 5780 5776 5774 5771 5768 5764 5763 5761 5760 5757 5755 5753 5750 5749 5748 5746 5745 5744 5743 5742
5844 5843 5838 5832 5826 5803 5787 5792 5827 5828 5836 5837 5838 5836 5837 5838 5836 5835 5832 5829 5825 5819 5812 5804 5798 5792 5788 5785 5780 5776 5772 5770 5767 5763 5761 5759 5756 5754 5752 5750 5748 5746 5744 5743 5741 5740 5739 5737 5736
5847 5838 5833 5813 5812 5818 5806 5796 5840 5837 5840 5840 5837 5836 5840 5837 5835 5832 5829 5826 5820 5815 5809 5802 5796 5790 5786 5783 5778 5773 5769 5766 5762 5759 5756 5755 5752 5750 5748 5746 5743 5742 5740 5739 5737 5735 5734 5732 5730